User: anonymous   Login
Location: Pedholt
(56.0260°N, 10.2097°E)
Time: 07:54:59
(UTC+00:00)
Language:

Transit 4A - Orbit

View from above orbital plane
View from above orbital plane
View from above satellite
View from above satellite

Ground track
Ground track

The orbit data is extracted from the following two-line orbital elements,

1 00116U 61015A   21204.74173563 -.00000043  00000-0  26011-4 0  9998
2 00116  66.8109 307.2034 0068610  87.5769 273.3163 13.91793648 47649
Epoch (UTC): 23 July 2021 17:48:05
Eccentricity: 0.0068610
inclination: 66.8109°
perigee height: 872 km
apogee height: 972 km
right ascension of ascending node: 307.2034°
argument of perigee: 87.5769°
revolutions per day: 13.91793648
mean anomaly at epoch: 273.3163°
orbit number at epoch: 4764

The dashed part of the orbit path shows where the satellite is in the earth's shadow,  

DLR